KA2FNK Weather Reports


Display with metric or nautical units.
time (UTC)temp
F
wind
direction
speed
MPH
gust
MPH
rain 1hr
in
rain 24hr
in
rain mn
in
humidity
%
barometer
mb
20260508185911 65 175 0.0 4.0 0.00 0.00 0.00 69 1008.7
20260508185410 65 239 0.0 0.0 0.00 0.00 0.00 69 1008.7
20260508184910 64 239 0.0 0.0 0.00 0.00 0.00 69 1008.6
20260508184409 64 239 0.0 0.0 0.00 0.00 0.00 68 1008.6
20260508183907 64 239 0.0 0.0 0.00 0.00 0.00 69 1008.8
20260508183405 64 239 0.0 0.0 0.00 0.00 0.00 68 1008.9
20260508182903 64 219 1.0 6.0 0.00 0.00 0.00 68 1009.2
20260508182402 64 198 1.0 2.0 0.00 0.00 0.00 67 1009.3
20260508181902 64 181 0.0 3.0 0.00 0.00 0.00 68 1009.3
20260508181400 65 220 1.0 2.0 0.00 0.00 0.00 67 1009.3
20260508180859 64 229 2.0 5.0 0.00 0.00 0.00 68 1009.3
20260508180357 64 232 1.0 3.0 0.00 0.00 0.00 69 1009.3
20260508175856 64 192 0.0 1.0 0.00 0.00 0.00 69 1009.3
20260508175355 64 209 0.0 2.0 0.00 0.00 0.00 69 1009.2
20260508174852 64 205 0.0 3.0 0.00 0.00 0.00 70 1009.3
20260508174351 63 226 1.0 1.0 0.00 0.00 0.00 70 1009.2
20260508173851 63 240 0.0 2.0 0.00 0.00 0.00 70 1009.2
20260508173349 63 184 0.0 1.0 0.00 0.00 0.00 70 1009.3
20260508172848 63 239 1.0 8.0 0.00 0.00 0.00 70 1009.3
20260508172347 63 254 2.0 3.0 0.00 0.00 0.00 70 1009.1
20260508171846 63 181 0.0 4.0 0.00 0.00 0.00 71 1009.1
20260508171345 62 219 1.0 2.0 0.00 0.00 0.00 72 1008.8
20260508170845 62 49 1.0 2.0 0.00 0.00 0.00 71 1008.7
20260508170343 62 248 0.0 2.0 0.00 0.00 0.00 71 1009.3
20260508165843 62 177 0.0 0.0 0.00 0.00 0.00 71 1009.0
20260508165341 62 177 0.0 1.0 0.00 0.00 0.00 71 1009.4
20260508164840 62 222 0.0 2.0 0.00 0.00 0.00 71 1009.7
20260508164340 62 215 0.0 0.0 0.00 0.00 0.00 70 1009.9
20260508163838 62 215 0.0 2.0 0.00 0.00 0.00 69 1009.9
20260508163337 62 240 1.0 4.0 0.00 0.00 0.00 69 1009.8
20260508162836 62 233 0.0 5.0 0.00 0.00 0.00 69 1009.8
20260508162336 62 240 0.0 1.0 0.00 0.00 0.00 69 1009.8
20260508161834 62 240 1.0 9.0 0.00 0.00 0.00 69 1009.7
20260508161334 62 223 3.0 6.0 0.00 0.00 0.00 68 1009.6
20260508160832 62 247 1.0 4.0 0.00 0.00 0.00 69 1009.4
20260508160331 62 272 0.0 3.0 0.00 0.00 0.00 70 1009.6
20260508155831 62 191 0.0 8.0 0.00 0.00 0.00 70 1009.7
20260508155329 62 216 0.0 7.0 0.00 0.00 0.00 70 1009.6
20260508154828 61 208 2.0 4.0 0.00 0.00 0.00 71 1009.4
20260508154328 61 184 0.0 4.0 0.00 0.00 0.00 70 1009.6
20260508153826 61 187 0.0 2.0 0.00 0.00 0.00 69 1009.6
20260508153325 61 202 0.0 2.0 0.00 0.00 0.00 70 1009.7
20260508152825 61 226 0.0 4.0 0.00 0.00 0.00 70 1009.7
20260508152324 61 230 1.0 3.0 0.00 0.00 0.00 71 1009.7
20260508151822 61 201 0.0 0.0 0.00 0.00 0.00 71 1009.7
20260508151321 60 201 0.0 2.0 0.00 0.00 0.00 70 1009.8
20260508150820 60 171 0.0 0.0 0.00 0.00 0.00 70 1010.0
20260508150320 60 171 0.0 2.0 0.00 0.00 0.00 69 1010.0
20260508145818 60 247 0.0 6.0 0.00 0.00 0.00 69 1010.0
20260508145317 60 241 0.0 5.0 0.00 0.00 0.00 69 1010.0
20260508144816 60 225 0.0 5.0 0.00 0.00 0.00 69 1010.0
20260508144316 60 188 0.0 4.0 0.00 0.00 0.00 69 1010.0
20260508143815 60 203 1.0 7.0 0.00 0.00 0.00 69 1009.9
20260508143314 60 234 0.0 5.0 0.00 0.00 0.00 71 1009.9
20260508142813 59 239 0.0 8.0 0.00 0.00 0.00 69 1010.0
20260508142311 59 275 2.0 5.0 0.00 0.00 0.00 70 1009.8
20260508141811 59 167 4.0 5.0 0.00 0.00 0.00 70 1009.7
20260508141309 59 188 3.0 4.0 0.00 0.00 0.00 70 1009.7
20260508140809 59 222 6.0 11.0 0.00 0.00 0.00 70 1009.6
20260508140307 59 206 6.0 10.0 0.00 0.00 0.00 70 1009.4
20260508135806 59 208 7.0 7.0 0.00 0.00 0.00 70 1009.6
20260508135306 59 234 2.0 9.0 0.00 0.00 0.00 69 1009.4
20260508134804 59 227 2.0 10.0 0.00 0.00 0.00 71 1009.4
20260508134303 59 194 0.0 8.0 0.00 0.00 0.00 70 1009.4
20260508133802 59 201 1.0 6.0 0.00 0.00 0.00 70 1009.7
20260508133301 58 205 0.0 12.0 0.00 0.00 0.00 71 1009.7
20260508132800 58 189 4.0 7.0 0.00 0.00 0.00 71 1009.7
20260508132259 58 188 3.0 10.0 0.00 0.00 0.00 71 1009.7
20260508131758 58 260 2.0 9.0 0.00 0.00 0.00 71 1009.7
20260508131258 58 206 1.0 8.0 0.00 0.00 0.00 71 1009.7
20260508130756 58 203 3.0 10.0 0.00 0.00 0.00 71 1009.7
20260508130256 58 246 2.0 10.0 0.00 0.00 0.00 70 1009.7
20260508125754 58 222 2.0 6.0 0.00 0.00 0.00 70 1009.8
20260508125253 58 203 5.0 12.0 0.00 0.00 0.00 70 1009.7
20260508124752 58 196 7.0 12.0 0.00 0.00 0.00 70 1009.7
20260508124252 58 129 2.0 7.0 0.00 0.00 0.00 70 1009.7
20260508123751 58 208 0.0 8.0 0.00 0.00 0.00 70 1009.7
20260508123249 58 182 4.0 9.0 0.00 0.00 0.00 70 1009.6
20260508122749 58 212 6.0 7.0 0.00 0.00 0.00 70 1009.7
20260508122247 58 213 1.0 4.0 0.00 0.00 0.00 69 1009.7
20260508121746 58 226 2.0 2.0 0.00 0.00 0.00 69 1009.7
20260508121246 58 175 2.0 4.0 0.00 0.00 0.00 68 1009.6
20260508120744 58 229 2.0 7.0 0.00 0.00 0.00 68 1009.3
20260508120243 58 170 2.0 6.0 0.00 0.00 0.00 68 1009.2
20260508115742 58 234 2.0 6.0 0.00 0.00 0.00 67 1009.3
20260508115242 58 233 2.0 10.0 0.00 0.00 0.00 67 1009.1
20260508114741 59 115 0.0 5.0 0.00 0.00 0.00 67 1009.0
20260508114240 59 208 2.0 9.0 0.00 0.00 0.00 66 1009.1
20260508113738 59 241 4.0 10.0 0.00 0.00 0.00 66 1008.9
20260508113238 59 206 1.0 8.0 0.00 0.00 0.00 66 1008.7
20260508112737 58 170 1.0 7.0 0.00 0.00 0.00 66 1008.9
20260508112236 58 258 4.0 8.0 0.00 0.00 0.00 66 1008.7
20260508111734 58 182 8.0 10.0 0.00 0.00 0.00 66 1008.7
20260508111234 58 185 6.0 9.0 0.00 0.00 0.00 67 1008.6
20260508110732 58 181 1.0 9.0 0.00 0.00 0.00 67 1008.5
20260508110231 58 226 4.0 12.0 0.00 0.00 0.00 67 1008.6
20260508105730 58 123 1.0 10.0 0.00 0.00 0.00 68 1008.6
20260508105229 58 130 1.0 9.0 0.00 0.00 0.00 67 1008.8
20260508104728 58 232 2.0 11.0 0.00 0.00 0.00 67 1008.8
20260508104227 58 246 1.0 12.0 0.00 0.00 0.00 67 1008.8
20260508103726 58 217 1.0 7.0 0.00 0.00 0.00 67 1008.6
20260508103225 58 196 0.0 10.0 0.00 0.00 0.00 67 1008.6
20260508102724 59 199 5.0 12.0 0.00 0.00 0.00 67 1008.7
20260508102223 59 222 4.0 10.0 0.00 0.00 0.00 66 1008.6
20260508101722 59 209 1.0 10.0 0.00 0.00 0.00 66 1008.7
20260508101221 59 253 2.0 11.0 0.00 0.00 0.00 66 1008.7
20260508100720 59 194 7.0 8.0 0.00 0.00 0.00 65 1008.6
20260508100219 59 216 0.0 10.0 0.00 0.00 0.00 65 1008.7
20260508095718 59 172 1.0 9.0 0.00 0.00 0.00 64 1008.6
20260508095217 59 220 0.0 8.0 0.00 0.00 0.00 64 1008.6
20260508094716 59 248 0.0 7.0 0.00 0.00 0.00 64 1008.6
20260508094215 59 199 4.0 11.0 0.00 0.00 0.00 64 1008.5
20260508093714 59 191 1.0 15.0 0.00 0.00 0.00 64 1008.6
20260508093213 59 212 2.0 12.0 0.00 0.00 0.00 65 1008.4
20260508092712 59 236 3.0 9.0 0.00 0.00 0.00 65 1008.5
20260508092211 59 253 6.0 10.0 0.00 0.00 0.00 65 1008.6
20260508091710 59 254 5.0 10.0 0.00 0.00 0.00 65 1008.6
20260508091209 59 198 2.0 9.0 0.00 0.00 0.00 66 1008.6
20260508090708 59 258 2.0 11.0 0.00 0.00 0.00 66 1008.5
20260508090207 58 178 3.0 11.0 0.00 0.00 0.00 65 1008.5
20260508085706 58 230 3.0 9.0 0.00 0.00 0.00 66 1008.6
20260508085205 58 201 0.0 12.0 0.00 0.00 0.00 66 1008.7
20260508084704 58 215 3.0 12.0 0.00 0.00 0.00 66 1008.6
20260508084203 58 244 3.0 12.0 0.00 0.00 0.00 66 1008.6
20260508083702 58 187 4.0 8.0 0.00 0.00 0.00 66 1008.7
20260508083201 58 199 3.0 6.0 0.00 0.00 0.00 67 1008.7
20260508082700 58 164 3.0 8.0 0.00 0.00 0.00 67 1008.8
20260508082159 58 177 6.0 8.0 0.00 0.00 0.00 66 1008.9
20260508081658 58 254 2.0 12.0 0.00 0.00 0.00 66 1009.0
20260508081157 58 225 0.0 7.0 0.00 0.00 0.00 66 1009.0
20260508080656 58 220 1.0 10.0 0.00 0.00 0.00 66 1009.0
20260508080155 58 119 1.0 8.0 0.00 0.00 0.00 66 1009.0
20260508075654 58 202 7.0 9.0 0.00 0.00 0.00 66 1009.1
20260508075153 58 195 4.0 10.0 0.00 0.00 0.00 66 1009.2
20260508074652 58 210 1.0 4.0 0.00 0.00 0.00 66 1009.3
20260508074151 58 237 1.0 10.0 0.00 0.00 0.00 66 1009.4
20260508073650 58 219 2.0 7.0 0.00 0.00 0.00 65 1009.6
20260508073149 59 198 1.0 10.0 0.00 0.00 0.00 65 1009.6
20260508072648 59 188 5.0 7.0 0.00 0.00 0.00 65 1009.6
20260508072147 59 241 5.0 10.0 0.00 0.00 0.00 65 1009.6
20260508071646 59 216 2.0 7.0 0.00 0.00 0.00 64 1009.6
20260508071145 59 206 2.0 11.0 0.00 0.00 0.00 64 1009.7
20260508070644 59 163 2.0 10.0 0.00 0.00 0.00 65 1009.7
20260508070143 59 232 2.0 10.0 0.00 0.00 0.00 65 1009.8
20260508065642 59 215 3.0 9.0 0.00 0.00 0.00 64 1009.9
20260508065141 59 185 6.0 12.0 0.00 0.00 0.00 63 1009.9
20260508064640 59 212 5.0 9.0 0.00 0.00 0.00 64 1010.1
20260508064139 59 175 4.0 12.0 0.00 0.00 0.00 63 1010.1
20260508063638 59 194 5.0 10.0 0.00 0.00 0.00 63 1010.2
20260508063137 59 247 3.0 10.0 0.00 0.00 0.00 62 1010.2
20260508062636 60 101 2.0 7.0 0.00 0.00 0.00 62 1010.3
20260508062135 60 180 0.0 11.0 0.00 0.00 0.00 62 1010.3
20260508061634 60 237 1.0 6.0 0.00 0.00 0.00 62 1010.3
20260508061133 60 194 1.0 11.0 0.00 0.00 0.00 62 1010.4
20260508060632 60 130 3.0 10.0 0.00 0.00 0.00 61 1010.3
20260508060131 60 220 4.0 11.0 0.00 0.00 0.00 61 1010.4
20260508055630 60 209 6.0 9.0 0.00 0.00 0.00 61 1010.4
20260508055129 60 226 0.0 12.0 0.00 0.00 0.00 61 1010.4
20260508054628 60 240 5.0 8.0 0.00 0.00 0.00 60 1010.4
20260508054127 60 227 1.0 15.0 0.00 0.00 0.00 61 1010.3
20260508053626 60 284 1.0 13.0 0.00 0.00 0.00 61 1010.3
20260508053125 60 217 1.0 9.0 0.00 0.00 0.00 61 1010.3
20260508052624 61 267 0.0 7.0 0.00 0.00 0.00 60 1010.4
20260508052123 61 181 6.0 8.0 0.00 0.00 0.00 60 1010.4
20260508051622 61 132 1.0 13.0 0.00 0.00 0.00 60 1010.4
20260508051121 61 213 2.0 16.0 0.00 0.00 0.00 61 1010.4
20260508050620 61 215 6.0 8.0 0.00 0.00 0.00 60 1010.5
20260508050119 61 158 3.0 13.0 0.00 0.00 0.00 60 1010.5
20260508045618 61 272 2.0 13.0 0.00 0.00 0.00 60 1010.5
20260508045117 61 212 3.0 12.0 0.00 0.00 0.00 60 1010.5
20260508044616 61 216 7.0 12.0 0.00 0.00 0.00 60 1010.5
20260508044115 61 180 0.0 11.0 0.00 0.00 0.00 60 1010.6
20260508043615 61 126 2.0 13.0 0.00 0.00 0.00 60 1010.7
20260508043113 61 187 3.0 11.0 0.00 0.00 0.00 60 1010.7
20260508042612 61 191 5.0 10.0 0.00 0.00 0.00 60 1010.7
20260508042111 61 201 3.0 6.0 0.00 0.00 0.00 60 1010.7
20260508041610 61 136 1.0 10.0 0.00 0.00 0.00 59 1010.7
20260508041109 61 212 0.0 9.0 0.00 0.00 0.00 59 1010.8
20260508040608 61 171 2.0 13.0 0.00 0.00 0.00 60 1010.7
20260508040107 61 210 0.0 10.0 0.00 0.00 0.00 60 1010.8
20260508035606 61 106 1.0 11.0 0.00 0.00 0.00 59 1010.8
20260508035105 61 164 4.0 12.0 0.00 0.00 0.00 58 1010.8
20260508034604 62 92 1.0 7.0 0.00 0.00 0.00 58 1010.8
20260508034104 62 192 3.0 11.0 0.00 0.00 0.00 58 1010.8
20260508033602 62 202 3.0 7.0 0.00 0.00 0.00 58 1010.8
20260508033101 62 220 0.0 8.0 0.00 0.00 0.00 57 1010.8
20260508032600 62 78 2.0 13.0 0.00 0.00 0.00 57 1010.8
20260508032100 62 223 5.0 11.0 0.00 0.00 0.00 56 1010.8
20260508031558 63 175 8.0 10.0 0.00 0.00 0.00 56 1010.8
20260508031057 63 188 10.0 10.0 0.00 0.00 0.00 56 1010.8
20260508030556 63 164 0.0 10.0 0.00 0.00 0.00 56 1010.8
20260508030055 63 178 1.0 7.0 0.00 0.00 0.00 56 1010.6
20260508025554 63 227 1.0 11.0 0.00 0.00 0.00 55 1010.7
20260508025053 63 189 2.0 8.0 0.00 0.00 0.00 55 1010.6
20260508024552 63 161 0.0 10.0 0.00 0.00 0.00 55 1010.5
20260508024051 63 181 3.0 10.0 0.00 0.00 0.00 55 1010.4
20260508023550 63 220 1.0 10.0 0.00 0.00 0.00 54 1010.4
20260508023049 63 171 1.0 10.0 0.00 0.00 0.00 54 1010.4
20260508022548 64 192 1.0 6.0 0.00 0.00 0.00 54 1010.3
20260508022048 64 210 4.0 9.0 0.00 0.00 0.00 54 1010.2
20260508021546 64 205 4.0 11.0 0.00 0.00 0.00 53 1010.2
20260508021045 64 201 4.0 9.0 0.00 0.00 0.00 53 1010.1
20260508020544 64 191 0.0 10.0 0.00 0.00 0.00 53 1010.1
20260508020043 64 201 3.0 15.0 0.00 0.00 0.00 53 1010.1
20260508015542 64 177 3.0 7.0 0.00 0.00 0.00 52 1010.0
20260508015041 64 216 1.0 9.0 0.00 0.00 0.00 52 1010.0
20260508014540 65 168 2.0 7.0 0.00 0.00 0.00 52 1010.1
20260508014039 65 209 2.0 9.0 0.00 0.00 0.00 51 1010.0
20260508013538 65 163 0.0 6.0 0.00 0.00 0.00 51 1010.0
20260508013037 65 194 0.0 9.0 0.00 0.00 0.00 51 1010.0
20260508012536 65 205 1.0 5.0 0.00 0.00 0.00 51 1010.0
20260508012035 66 94 0.0 6.0 0.00 0.00 0.00 50 1010.0
20260508011534 66 219 1.0 8.0 0.00 0.00 0.00 49 1010.0
20260508011033 66 208 0.0 9.0 0.00 0.00 0.00 48 1009.9
20260508010533 66 201 0.0 6.0 0.00 0.00 0.00 48 1009.9
20260508010031 67 222 0.0 5.0 0.00 0.00 0.00 48 1009.9
20260508005530 67 172 0.0 2.0 0.00 0.00 0.00 48 1009.9
20260508005029 67 146 0.0 4.0 0.00 0.00 0.00 47 1009.8
20260508004528 67 210 3.0 7.0 0.00 0.00 0.00 47 1009.8
20260508004028 67 191 0.0 8.0 0.00 0.00 0.00 47 1009.8
20260508003526 67 205 0.0 2.0 0.00 0.00 0.00 47 1009.9
20260508003026 68 154 1.0 10.0 0.00 0.00 0.00 45 1009.9
20260508002524 68 202 1.0 8.0 0.00 0.00 0.00 45 1010.0
20260508002024 68 215 2.0 6.0 0.00 0.00 0.00 45 1010.0
20260508001522 68 229 2.0 9.0 0.00 0.00 0.00 45 1010.1
20260508001021 68 206 0.0 8.0 0.00 0.00 0.00 45 1010.2
20260508000520 68 147 2.0 9.0 0.00 0.00 0.00 45 1010.3
20260508000020 68 248 3.0 4.0 0.00 0.00 0.00 45 1010.4
20260507235518 68 226 0.0 5.0 0.00 0.00 0.00 44 1010.3
20260507235017 68 165 0.0 8.0 0.00 0.00 0.00 45 1010.4
20260507234517 68 215 4.0 11.0 0.00 0.00 0.00 44 1010.5
20260507234014 68 213 1.0 10.0 0.00 0.00 0.00 44 1010.4
20260507233513 69 319 1.0 6.0 0.00 0.00 0.00 44 1010.5
20260507233012 69 147 6.0 10.0 0.00 0.00 0.00 45 1010.4
20260507232511 69 278 0.0 0.0 0.00 0.00 0.00 46 1010.5
20260507232011 69 278 0.0 9.0 0.00 0.00 0.00 44 1010.5
20260507231509 69 196 2.0 10.0 0.00 0.00 0.00 45 1010.5
20260507231009 69 246 3.0 9.0 0.00 0.00 0.00 43 1010.4
20260507230507 69 239 2.0 7.0 0.00 0.00 0.00 43 1010.4
20260507230006 69 217 3.0 14.0 0.00 0.00 0.00 41 1010.5
20260507225505 70 182 0.0 4.0 0.00 0.00 0.00 45 1010.5
20260507225005 70 217 0.0 7.0 0.00 0.00 0.00 43 1010.5
20260507224504 70 205 0.0 11.0 0.00 0.00 0.00 44 1010.5
20260507224003 70 156 5.0 12.0 0.00 0.00 0.00 42 1010.5
20260507223501 70 213 0.0 10.0 0.00 0.00 0.00 42 1010.6
20260507223001 70 246 0.0 11.0 0.00 0.00 0.00 43 1010.6
20260507222500 70 226 2.0 7.0 0.00 0.00 0.00 44 1010.6
20260507221958 70 194 2.0 12.0 0.00 0.00 0.00 45 1010.6
20260507221457 70 216 0.0 8.0 0.00 0.00 0.00 44 1010.6
20260507220956 69 222 6.0 12.0 0.00 0.00 0.00 45 1010.7
20260507220455 69 222 0.0 14.0 0.00 0.00 0.00 44 1010.7
20260507215955 69 158 6.0 15.0 0.00 0.00 0.00 44 1010.7
20260507215454 69 216 7.0 9.0 0.00 0.00 0.00 46 1010.8
20260507214952 69 265 3.0 12.0 0.00 0.00 0.00 45 1010.9
20260507214451 69 229 5.0 15.0 0.00 0.00 0.00 45 1010.9
20260507213950 69 157 6.0 11.0 0.00 0.00 0.00 46 1010.9
20260507213449 68 236 0.0 12.0 0.00 0.00 0.00 46 1011.1
20260507212948 68 220 0.0 9.0 0.00 0.00 0.00 47 1011.2
20260507212447 68 208 2.0 10.0 0.00 0.00 0.00 47 1011.4
20260507211946 68 253 3.0 13.0 0.00 0.00 0.00 46 1011.3
20260507211446 68 217 0.0 12.0 0.00 0.00 0.00 48 1011.4
20260507210944 68 192 2.0 12.0 0.00 0.00 0.00 49 1011.5
20260507210444 68 243 1.0 8.0 0.00 0.00 0.00 48 1011.8
20260507205943 68 240 7.0 9.0 0.00 0.00 0.00 48 1011.8
20260507205441 68 175 0.0 12.0 0.00 0.00 0.00 48 1011.9
20260507204940 68 180 1.0 10.0 0.00 0.00 0.00 47 1012.0
20260507204438 68 161 8.0 10.0 0.00 0.00 0.00 48 1011.8
20260507203938 67 307 8.0 12.0 0.00 0.00 0.00 48 1012.0
20260507203436 67 281 3.0 11.0 0.00 0.00 0.00 51 1012.0
20260507202935 67 237 2.0 15.0 0.00 0.00 0.00 50 1012.1
20260507202434 67 187 8.0 14.0 0.00 0.00 0.00 47 1012.4
20260507201933 67 217 2.0 13.0 0.00 0.00 0.00 48 1012.4
20260507201433 67 237 5.0 12.0 0.00 0.00 0.00 48 1012.5
20260507200931 67 317 4.0 15.0 0.00 0.00 0.00 51 1012.6
20260507200430 67 225 5.0 10.0 0.00 0.00 0.00 51 1012.6
20260507195929 66 243 0.0 11.0 0.00 0.00 0.00 51 1012.6
20260507195428 67 205 1.0 5.0 0.00 0.00 0.00 49 1012.7
20260507194927 67 226 2.0 9.0 0.00 0.00 0.00 50 1012.7
20260507194426 66 147 1.0 8.0 0.00 0.00 0.00 51 1012.7
20260507193925 66 215 4.0 15.0 0.00 0.00 0.00 51 1012.8
20260507193424 66 188 0.0 12.0 0.00 0.00 0.00 51 1012.9
20260507192923 66 116 7.0 19.0 0.00 0.00 0.00 53 1012.8
20260507192422 65 168 12.0 15.0 0.00 0.00 0.00 53 1013.0
20260507191921 65 254 2.0 13.0 0.00 0.00 0.00 52 1013.0
20260507191420 66 246 6.0 20.0 0.00 0.00 0.00 52 1013.0
20260507190920 66 212 0.0 15.0 0.00 0.00 0.00 52 1013.1
20260507190418 66 196 5.0 11.0 0.00 0.00 0.00 51 1013.3